Weather History for KLWS - September, 2011

Change the Weather History Date:

Wednesday, September 14, 2011

  Actual Average Record
Temperature  
Mean Temperature 76 °F 65 °F  
Max Temperature 93 °F 79 °F 100 °F (1937)
Min Temperature 58 °F 52 °F 32 °F (1970)
Degree Days  
Heating Degree Days 0 3  
Month to date heating degree days 1 22  
Since 1 July heating degree days 3 37  
Cooling Degree Days 11 3  
Month to date cooling degree days 128 60  
Year to date cooling degree days 700 777  
Growing Degree Days 26 (Base 50)    
Moisture  
Dew Point 37 °F    
Average Humidity 29    
Maximum Humidity 46    
Minimum Humidity 12    
Precipitation  
Precipitation 0.00 in 0.02 in 1.73 in (1955)
Month to date precipitation 0.00 0.30  
Year to date precipitation 10.77 8.83  
Snow  
Snow 0.00 in 0.00 in 0.00 in (1998)
Month to date snowfall 0.0 0.0  
Since 1 July snowfall 0.0 0.0  
Since 1 September snowfall 0.0 0.0  
Snow Depth 0.00 in    
Sea Level Pressure  
Sea Level Pressure 29.83 in    
Wind  
Wind Speed 3 mph (WNW)    
Max Wind Speed 9 mph    
Max Gust Speed 13 mph    
Visibility 10 miles    
Events      
T = Trace of Precipitation, MM = Missing Value Source: NWS Daily Summary

Daily Weather History Graph

Daily Weather History Graph

Search for Another Location

Airport or City:

Trip Planner

Search our weather history database for the weather conditions in past years. The results will help you decide how hot, cold, wet, or windy it might be!

Date:

Astronomy

Sep. 14, 2011 Rise Set
Actual Time 6:24 AM PDT 7:01 PM PDT
Civil Twilight 5:54 AM PDT 7:32 PM PDT
Nautical Twilight 5:18 AM PDT 8:08 PM PDT
Astronomical Twilight 4:40 AM PDT 8:45 PM PDT
Moon 7:34 PM PDT (9/14) 8:52 AM PDT (9/14)
Length of Visible Light 13h 37m
Length of Day
12h 37m
Waning Gibbous, 95% of the Moon is Illuminated
Sep 14
Waning Gibbous
Sep 20
Last Quarter
Sep 27
New
Oct 3
First Quarter
Oct 11
Full

Hourly Weather History & Observations

Time (PDT) Temp. Dew Point Humidity Pressure Visibility Wind Dir Wind Speed Gust Speed Precip Events Conditions
12:56 AM 69.1 °F 35.1 °F 29% 29.91 in 10.0 mi Calm Calm - N/A   Clear
1:56 AM 63.0 °F 35.1 °F 35% 29.92 in 10.0 mi Calm Calm - N/A   Clear
2:56 AM 64.0 °F 36.0 °F 35% 29.92 in 10.0 mi Calm Calm - N/A   Clear
3:56 AM 63.0 °F 37.9 °F 40% 29.92 in 10.0 mi Calm Calm - N/A   Clear
4:56 AM 62.1 °F 37.9 °F 41% 29.92 in 10.0 mi Calm Calm - N/A   Clear
5:56 AM 60.1 °F 39.0 °F 46% 29.93 in 10.0 mi Calm Calm - N/A   Clear
6:56 AM 60.1 °F 39.9 °F 47% 29.94 in 10.0 mi Calm Calm - N/A   Clear
7:56 AM 62.1 °F 41.0 °F 46% 29.94 in 10.0 mi East 4.6 mph - N/A   Clear
8:56 AM 64.9 °F 41.0 °F 42% 29.94 in 10.0 mi Calm Calm - N/A   Clear
9:56 AM 69.1 °F 41.0 °F 36% 29.92 in 10.0 mi ENE 4.6 mph - N/A   Clear
10:56 AM 73.9 °F 39.9 °F 29% 29.90 in 10.0 mi NE 5.8 mph - N/A   Clear
11:56 AM 78.1 °F 41.0 °F 27% 29.87 in 10.0 mi NW 5.8 mph - N/A   Clear
12:56 PM 84.0 °F 39.0 °F 20% 29.84 in 9.0 mi NNW 5.8 mph - N/A   Clear
1:56 PM 86.0 °F 39.0 °F 19% 29.81 in 9.0 mi West 4.6 mph - N/A   Clear
2:56 PM 89.1 °F 39.0 °F 17% 29.78 in 9.0 mi WNW 4.6 mph - N/A   Clear
3:56 PM 91.0 °F 35.1 °F 14% 29.76 in 10.0 mi Calm Calm - N/A   Clear
4:56 PM 91.9 °F 32.0 °F 12% 29.73 in 10.0 mi Calm Calm - N/A   Clear
5:56 PM 90.0 °F 30.9 °F 12% 29.72 in 10.0 mi WNW 3.5 mph - N/A   Clear
6:56 PM 86.0 °F 33.1 °F 15% 29.72 in 10.0 mi West 6.9 mph - N/A   Clear
7:56 PM 82.0 °F 36.0 °F 19% 29.73 in 10.0 mi West 6.9 mph - N/A   Clear
8:56 PM 78.1 °F 36.0 °F 22% 29.73 in 10.0 mi WSW 3.5 mph - N/A   Clear
9:56 PM 73.9 °F 36.0 °F 25% 29.73 in 10.0 mi SSE 4.6 mph - N/A   Clear
10:56 PM 73.0 °F 36.0 °F 26% 29.73 in 10.0 mi SSE 5.8 mph - N/A   Clear
11:56 PM 72.0 °F 36.0 °F 27% 29.73 in 10.0 mi SE 3.5 mph - N/A   Clear